RH
30 28 25 28 30 26 24 26 25 25 31 39 47 57 69 79 86 90 94 97 99 99 98 99 99 100 100 100 101 100 100 100 100 100 100 99 99 94 88 91 91 93 94 93 95 97 99 95 91 86 79 77
27 26 25 25 28 26 24 25 24 22 23 25 30 39 48 59 69 76 82 87 91 92 94 95 95 97 99 100 99 99 100 100 101 100 100 99 100 98 93 93 92 92 93 94 95 95 98 95 91 86 82 81
28 28 28 26 26 25 24 24 24 22 22 22 23 27 31 39 50 60 68 73 76 80 84 87 88 91 94 97 97 97 98 99 101 100 100 100 100 100 99 98 96 94 94 97 95 93 98 95 92 88 84 83
30 30 30 29 28 27 27 26 25 24 23 23 23 23 23 25 32 42 50 57 62 66 72 77 79 82 84 87 90 92 92 94 98 100 101 100 100 100 100 100 99 97 96 99 96 92 96 96 95 88 85 85
33 33 33 32 31 30 30 29 28 27 25 24 24 25 25 22 22 25 30 37 44 48 54 62 67 72 76 77 80 84 86 88 91 96 100 100 100 99 100 100 100 99 98 100 99 96 97 99 94 86 89 90
36 35 34 34 34 33 33 32 31 31 30 28 27 27 27 25 22 20 20 22 27 32 37 43 51 60 68 72 73 75 78 82 85 89 94 98 100 100 100 100 100 100 99 99 100 99 99 99 90 85 93 94
41 39 37 36 35 35 34 35 34 34 33 32 31 30 28 26 24 23 20 18 18 21 24 28 34 42 51 61 68 71 72 74 76 79 84 90 96 98 100 101 99 100 100 100 100 100 99 98 89 86 94 96
46 44 43 41 38 37 36 35 35 36 35 35 34 32 30 28 27 26 23 20 18 17 18 20 23 26 32 41 51 60 67 70 70 70 73 79 86 89 95 101 101 99 100 99 100 100 99 99 95 89 95 99
48 48 47 45 42 40 38 37 35 35 35 35 35 33 32 31 30 30 28 25 22 19 18 17 17 18 21 27 33 41 49 59 67 70 70 70 74 78 82 93 100 100 100 99 100 101 99 100 99 95 97 100
46 48 48 47 45 41 38 37 36 34 34 33 33 34 34 33 33 32 31 30 28 25 22 19 17 15 15 18 22 27 31 38 49 60 69 70 69 71 72 78 86 93 99 101 100 100 101 100 99 97 98 101
38 40 41 41 41 37 32 30 30 29 30 30 30 32 34 34 34 33 32 32 32 31 28 25 22 18 15 14 14 18 22 27 32 38 53 66 69 69 68 69 70 75 84 93 100 101 99 100 100 100 99 100
29 29 29 28 28 26 22 20 20 22 24 25 26 28 30 32 33 34 33 32 32 32 32 31 28 24 20 17 14 13 15 22 29 30 34 45 58 65 68 68 66 67 68 74 89 100 101 100 100 99 101 100
29 26 25 23 21 18 17 16 16 18 20 22 24 25 26 28 29 31 33 33 32 31 30 30 30 29 26 21 16 15 13 15 23 30 32 33 40 51 61 67 69 71 71 67 70 82 92 98 101 100 100 98
34 32 29 27 24 20 19 18 18 18 19 21 23 24 25 26 26 27 29 31 31 30 28 26 27 28 28 25 19 17 16 15 15 21 28 30 32 39 47 56 65 72 76 73 67 69 75 81 90 98 101 98
40 39 37 34 29 27 26 25 25 24 23 24 26 27 27 26 25 26 26 26 27 27 27 25 24 23 24 24 22 19 17 16 15 15 19 23 25 33 41 46 54 64 70 73 71 70 71 69 70 79 92 99
42 42 39 37 35 33 33 34 33 32 32 32 34 34 33 30 28 28 27 25 25 25 25 25 23 20 19 20 20 21 19 18 17 15 16 17 16 24 38 43 47 55 62 67 69 70 72 72 67 63 71 85
42 40 36 35 36 36 36 38 37 36 38 40 42 44 43 40 36 33 31 27 24 23 22 22 22 20 18 17 17 21 21 19 19 17 14 14 13 15 26 36 44 50 57 63 67 67 69 72 72 62 58 67
42 39 36 35 36 37 38 39 39 37 39 42 46 50 50 48 45 43 39 35 31 27 25 22 20 20 19 17 17 25 29 24 20 19 16 14 15 13 13 22 36 47 53 58 66 68 66 66 70 67 58 55
39 38 38 40 39 38 39 40 40 39 39 41 46 51 52 50 49 48 46 46 42 36 32 28 24 21 19 19 16 21 32 35 30 24 22 20 19 16 13 18 30 44 52 52 59 68 68 63 63 68 62 50
37 38 40 44 45 43 43 41 41 41 41 41 45 50 52 51 51 49 48 51 48 40 38 38 35 29 24 22 18 16 26 42 47 40 34 31 31 29 23 25 31 39 49 51 51 58 67 68 63 63 64 56
39 41 42 45 46 45 46 44 41 41 43 44 46 50 51 50 49 48 49 50 47 43 45 48 47 43 36 29 23 19 24 41 57 60 53 45 45 48 40 36 38 42 52 57 53 49 56 67 71 65 61 59
40 41 40 42 44 45 47 49 46 44 46 47 48 49 49 50 50 49 50 49 46 46 52 54 53 51 48 44 39 32 28 36 54 68 73 63 53 56 55 46 42 48 58 64 59 48 43 52 66 73 67 58
46 46 43 41 40 41 43 49 54 53 52 50 50 50 50 51 53 53 53 51 48 50 56 56 53 51 50 52 52 47 37 32 36 48 63 71 65 59 59 58 54 52 56 60 59 48 34 33 44 62 72 65
61 60 59 57 52 50 48 51 59 62 60 57 54 52 53 53 54 55 55 54 52 52 54 52 50 50 49 50 50 48 42 33 27 25 29 44 60 64 62 63 66 65 64 60 52 41 28 21 24 35 53 64
71 69 69 69 69 68 66 65 66 68 67 64 61 58 57 58 57 57 56 55 54 53 53 51 49 49 49 49 48 47 44 38 31 24 17 15 29 52 64 67 68 69 73 72 62 52 42 29 22 22 28 41
69 70 70 71 73 74 73 72 71 73 74 71 68 65 63 62 62 61 58 55 54 52 53 54 52 50 49 49 49 48 47 45 38 29 22 15 13 24 41 56 68 71 72 75 73 70 67 50 29 21 19 20
69 71 74 75 74 72 70 68 66 68 74 75 74 71 68 65 64 62 60 58 57 56 56 57 55 53 52 51 50 50 48 49 48 40 36 37 37 33 28 29 45 64 72 73 71 72 76 66 48 34 21 15
77 77 77 75 72 69 63 57 54 56 64 70 71 72 70 68 66 63 62 62 61 60 59 59 58 56 54 52 51 51 51 53 53 51 55 62 64 62 51 36 31 44 63 74 75 77 77 73 72 62 39 29
77 78 75 70 68 62 57 56 57 58 62 64 64 67 68 67 66 64 62 60 58 57 58 58 57 56 55 54 55 56 57 61 61 58 62 70 71 71 68 61 51 44 53 71 79 81 83 81 84 78 62 55
70 72 69 69 68 65 71 79 77 73 71 67 65 64 63 63 62 60 59 58 58 59 59 59 59 59 59 60 62 64 62 62 65 64 63 66 70 71 70 71 69 59 58 69 76 79 83 86 87 82 76 76
64 66 68 72 71 73 87 94 87 81 76 72 68 65 63 61 60 59 59 60 60 60 61 61 61 61 62 62 60 62 64 63 64 66 65 67 68 62 60 69 76 71 66 67 72 78 80 81 85 85 83 82
Wind_Speed
14 15 15 12 12 12 12 12 12 11 10 9 9 10 10 12 13 14 12 11 9 8 6 4 5 5 5 8 13 16 18 17 13 15 13 10 18 23 22 21 18 17 16 17 17 16 14 10 10 9 7 7
17 18 18 17 15 15 14 12 12 12 11 11 10 9 9 10 10 12 12 12 12 12 11 9 10 10 8 3 6 7 11 17 17 18 15 13 17 22 23 21 19 17 17 16 17 17 15 12 12 10 8 8
18 19 19 19 19 18 18 16 14 13 12 11 10 10 10 10 9 9 10 11 12 13 13 13 12 12 13 10 8 4 3 6 13 18 17 14 15 19 20 20 18 17 16 16 17 16 15 14 14 12 10 9
19 19 20 19 19 19 20 20 19 18 16 12 10 10 11 10 9 8 8 8 9 10 12 13 12 12 13 13 14 13 10 8 5 10 16 16 15 16 18 18 18 18 15 15 17 17 17 17 16 13 11 10
21 21 21 21 20 19 20 20 20 20 19 16 12 10 10 10 10 10 9 8 8 9 9 11 12 12 12 12 14 16 15 13 11 7 9 16 17 15 17 18 19 20 17 15 16 18 19 19 16 14 12 12
24 23 23 23 23 21 21 21 21 22 21 20 18 15 12 11 12 12 11 10 9 9 9 9 10 11 12 12 13 14 14 13 12 11 10 10 13 15 17 18 19 21 21 18 16 18 20 20 17 15 15 13
26 26 25 25 25 24 24 23 23 23 23 23 23 21 17 14 14 15 14 13 12 10 8 8 9 10 10 11 12 13 13 12 11 10 12 11 8 9 14 18 18 19 21 20 18 17 19 20 18 16 17 16
29 29 28 28 28 28 27 26 25 25 24 24 24 23 21 19 18 18 17 16 15 12 10 8 7 8 9 10 11 12 12 12 12 10 11 12 11 7 8 16 18 17 19 20 20 19 18 19 19 19 18 17
32 31 31 30 30 30 30 29 28 27 26 25 25 24 23 23 22 22 21 20 18 17 14 12 9 9 8 8 9 10 11 12 12 13 12 12 13 12 7 7 14 15 16 19 21 22 20 19 21 21 20 18
33 33 32 32 32 32 32 30 29 28 27 26 25 25 25 24 25 24 24 23 22 20 18 16 14 13 11 9 9 9 9 11 11 13 14 13 13 14 12 8 7 9 11 15 19 22 22 20 21 22 21 20
31 31 31 31 31 31 32 31 29 28 27 26 24 24 25 25 25 26 25 25 24 23 21 20 19 18 16 13 11 9 8 9 10 11 12 14 14 14 14 13 11 8 6 8 14 19 20 19 21 23 21 21
28 28 29 30 31 31 32 32 29 26 23 22 22 22 23 23 25 26 26 26 25 25 24 23 23 22 20 18 15 12 10 8 9 10 10 12 14 15 16 16 15 14 9 6 8 14 16 16 18 22 23 24
30 31 32 33 34 33 33 32 30 27 22 19 18 19 19 20 22 24 26 26 26 26 25 25 24 24 23 21 19 16 13 11 11 11 11 11 13 15 16 18 19 18 15 11 7 8 11 11 13 18 23 25
31 33 34 35 35 34 33 32 31 29 25 20 16 15 15 17 19 21 23 24 25 25 25 25 24 24 24 22 20 19 17 14 12 12 12 11 12 14 16 17 19 20 21 17 12 8 8 8 8 12 17 22
30 31 32 33 33 32 31 31 31 30 27 24 19 15 13 13 15 17 19 21 23 24 24 24 24 24 24 23 20 19 19 17 15 13 12 12 12 14 16 17 18 20 22 22 18 13 10 9 9 9 12 15
28 29 31 32 31 29 29 29 29 27 25 24 22 20 16 13 13 15 16 18 19 21 23 23 23 22 22 22 21 20 19 18 18 16 13 13 13 14 15 17 18 19 22 23 22 19 14 12 11 12 12 12
28 29 32 32 31 28 28 26 25 25 23 22 22 22 22 18 16 16 16 17 18 19 21 22 22 21 20 20 20 20 19 19 19 19 18 15 14 14 14 15 16 18 20 22 23 22 19 17 14 14 14 14
24 27 29 32 31 29 29 26 23 25 23 21 21 21 22 22 21 21 21 20 20 19 19 20 20 20 19 18 19 19 19 20 19 19 20 18 15 15 14 13 14 15 18 20 22 23 22 20 19 17 16 16
19 21 21 25 28 28 30 27 23 24 22 21 21 19 20 22 23 24 23 22 22 22 22 21 20 19 18 17 17 18 18 19 19 19 19 18 17 16 15 14 13 13 15 18 21 23 23 22 21 20 19 19
20 18 16 18 21 23 26 26 23 22 21 21 19 18 18 20 23 23 22 22 25 26 24 22 21 19 18 16 16 17 18 18 18 18 18 17 16 17 16 15 14 14 15 16 19 21 24 25 24 23 22 22
23 22 20 18 17 17 19 20 22 20 18 17 16 15 17 19 21 21 22 24 25 26 25 24 23 20 17 17 17 17 18 18 17 17 18 18 16 16 16 16 16 16 16 16 17 19 22 26 28 27 23 23
28 27 26 24 21 17 15 15 17 17 14 13 14 14 15 16 18 19 21 23 24 23 23 24 24 24 20 18 18 18 18 18 18 16 16 18 18 16 16 17 18 18 18 19 19 20 21 23 27 29 26 23
27 27 27 27 25 22 18 13 13 14 15 16 18 18 16 16 18 19 21 21 20 19 18 21 23 25 24 22 21 20 20 19 19 19 18 18 19 18 17 17 18 19 20 22 23 23 23 23 25 28 28 26
25 24 24 24 24 23 21 17 14 14 15 17 19 20 19 19 21 22 21 19 18 16 16 19 21 23 25 26 26 26 26 25 24 23 22 21 21 21 20 18 17 18 20 23 26 26 27 26 25 26 28 30
26 25 25 25 24 23 22 21 19 18 17 16 17 19 20 21 22 23 22 20 21 21 21 22 23 24 25 26 28 29 30 31 31 29 27 25 23 23 23 21 19 17 18 22 25 26 27 27 26 26 26 29
27 27 27 28 28 27 25 24 23 21 19 17 17 17 19 20 21 22 23 23 24 25 27 27 27 27 27 27 28 30 32 33 34 33 29 26 24 23 25 25 22 17 17 20 23 24 26 27 27 26 26 27
28 28 28 28 29 30 31 30 27 25 23 21 19 19 19 19 21 22 24 25 25 27 29 30 30 29 29 29 30 32 32 31 32 29 24 21 21 23 24 26 25 20 17 19 21 21 24 27 26 26 25 25
26 28 29 30 30 32 33 32 29 27 25 24 23 23 23 22 24 25 26 27 27 28 29 30 31 32 32 32 32 31 29 28 27 25 21 19 20 22 24 26 25 22 19 18 19 19 21 21 20 22 23 22
27 28 30 31 31 32 29 24 21 21 22 23 24 25 26 27 29 30 32 33 33 32 33 33 34 34 33 32 29 27 27 26 25 24 23 22 22 22 23 25 26 24 21 19 19 21 24 20 16 17 19 19
29 29 30 29 28 27 24 21 19 19 20 22 24 26 28 29 31 33 34 35 34 34 33 33 33 32 30 29 27 27 28 27 26 26 25 25 25 25 25 26 28 27 24 22 21 23 28 26 22 22 20 20
27 26 26 25 25 22 19 20 22 21 22 23 25 28 29 31 33 34 34 34 34 33 32 32 32 31 31 31 31 31 31 31 30 30 29 28 28 27 27 28 30 29 26 25 24 24 28 31 30 29 26 25
Wind_Direction
14 17 16 16 18 20 21 22 22 19 11 356 343 334 323 313 308 310 307 293 283 276 277 283 280 260 217 194 197 204 197 181 171 185 183 189 220 224 224 224 224 229 229 226 231 223 217 220 217 224 220 214
15 17 14 10 9 11 11 12 14 17 15 11 5 353 340 329 317 315 317 310 300 292 285 278 276 280 285 239 186 186 180 176 173 185 188 183 207 218 218 219 218 224 231 229 229 224 216 215 213 220 223 211
11 12 11 9 9 8 7 5 4 8 9 9 8 6 358 348 335 324 322 320 315 308 300 292 283 280 279 273 264 255 184 181 179 184 190 189 202 214 215 216 215 218 226 228 228 225 219 215 215 222 225 213
3 5 3 3 4 5 6 4 1 1 1 358 1 8 8 360 348 339 334 327 323 320 313 306 301 296 285 275 271 268 269 280 247 191 188 190 198 209 213 212 212 214 216 219 222 220 216 213 218 223 221 215
358 359 358 357 356 358 360 359 358 357 356 351 346 351 360 0 355 352 348 342 337 335 328 317 313 307 301 291 278 271 270 270 275 269 211 193 193 200 207 207 208 211 209 207 214 217 212 210 218 216 211 215
355 355 355 355 352 352 353 353 353 353 353 349 344 339 338 347 352 353 351 349 347 345 342 331 323 315 307 303 292 282 278 269 263 270 264 222 195 191 197 199 201 206 209 204 205 215 213 208 213 211 202 212
348 348 349 351 349 348 348 348 348 348 349 347 346 340 332 332 339 345 347 348 346 343 345 339 332 325 313 305 300 293 289 282 271 261 264 263 237 200 192 191 192 196 204 205 200 209 219 209 206 209 203 207
340 341 342 342 344 344 343 344 343 343 343 343 343 339 332 328 330 336 339 341 340 335 333 337 335 328 319 309 304 301 296 289 284 275 262 261 265 259 205 186 185 185 192 202 199 200 215 215 208 207 204 207
333 333 334 334 336 337 336 337 337 337 337 337 338 335 331 328 329 329 331 333 333 331 327 329 333 330 321 314 311 309 305 297 288 281 273 264 262 270 270 202 184 181 181 191 197 198 206 218 218 207 202 208
326 326 327 328 330 330 330 329 330 331 330 331 332 329 327 327 328 325 325 326 325 326 325 324 327 330 327 320 316 313 310 306 300 288 281 276 268 265 274 273 222 194 182 183 189 195 202 214 220 208 202 208
319 319 320 322 323 324 326 325 324 325 324 326 326 323 322 323 324 322 322 321 320 319 320 323 325 327 327 326 323 317 310 302 301 298 290 284 279 270 264 269 272 258 222 193 185 187 195 205 213 207 205 208
320 320 320 321 321 320 322 323 322 323 321 319 318 317 317 317 316 316 317 317 316 316 317 319 321 322 324 325 324 320 313 298 288 287 291 291 286 281 270 264 267 269 272 257 201 186 186 191 201 203 206 206
326 327 326 326 325 324 323 322 321 321 321 316 312 311 310 310 309 308 310 311 312 314 315 316 316 316 317 320 322 319 313 301 287 277 278 286 287 286 282 273 267 266 272 279 260 211 194 188 190 196 204 206
330 330 329 328 327 326 325 324 322 320 319 316 310 305 302 302 303 301 302 303 306 309 311 313 312 311 311 314 318 316 312 305 295 283 275 277 282 282 282 282 277 272 269 272 276 257 227 222 211 199 204 209
330 329 328 328 326 326 326 325 323 321 318 317 314 306 298 296 296 295 294 295 297 300 303 305 306 308 308 309 311 310 308 305 301 294 283 279 278 273 272 277 279 277 273 271 271 264 260 265 262 239 217 214
325 326 328 326 324 325 327 327 325 323 320 320 319 315 310 305 300 293 290 290 290 291 293 296 299 303 305 305 305 303 302 301 300 298 290 284 283 274 265 266 270 274 274 273 270 268 274 276 274 270 249 234
324 325 326 322 319 321 322 325 330 327 324 324 324 322 321 320 316 308 301 296 291 289 289 290 293 296 300 302 300 298 297 294 293 294 291 287 285 278 268 262 260 264 268 271 271 270 279 283 277 276 269 257
329 327 326 320 315 317 317 319 329 330 327 326 324 323 325 325 326 324 319 312 305 302 300 296 292 292 294 297 297 295 294 292 289 289 290 289 284 279 273 266 258 258 260 262 265 266 273 285 283 275 273 270
321 322 329 327 317 317 318 314 319 326 328 328 323 319 321 325 328 328 325 323 321 320 317 308 297 293 293 294 292 290 288 287 286 285 285 287 284 279 273 267 261 260 261 258 257 258 260 272 281 276 270 268
304 309 321 332 323 322 323 315 312 320 327 325 318 312 314 321 324 323 321 323 328 331 328 319 308 299 296 294 287 282 280 280 283 284 282 281 280 279 274 269 265 262 264 263 257 255 252 254 264 271 271 268
300 303 307 313 316 323 328 321 312 317 325 321 314 309 310 318 318 314 314 317 324 333 333 328 321 311 301 291 284 279 276 275 278 281 281 278 273 271 270 267 265 264 265 265 261 256 252 250 252 258 265 269
302 299 299 297 298 304 318 330 323 315 311 303 301 303 309 315 311 308 309 311 321 332 331 326 323 317 308 296 289 284 279 276 274 274 275 276 272 266 264 263 262 263 264 265 263 258 252 249 250 252 257 261
305 299 298 294 291 290 291 312 329 320 307 295 291 294 297 298 299 304 307 308 319 330 327 321 320 317 311 305 300 293 286 283 280 276 271 271 271 265 259 259 259 261 264 264 262 260 258 253 248 247 250 253
310 306 306 302 298 293 287 291 304 309 306 298 291 288 287 286 290 296 300 303 307 314 313 313 315 312 308 306 304 301 297 295 292 289 282 275 272 269 263 257 254 259 265 266 263 260 260 258 254 248 243 244
314 313 313 310 308 304 299 298 299 298 297 295 288 284 282 282 284 286 289 293 293 294 294 297 300 301 300 301 302 303 302 301 299 296 293 286 276 271 271 266 259 259 266 270 268 266 265 261 257 254 249 244
311 312 309 306 305 304 302 302 303 301 297 293 289 283 279 278 279 279 282 286 286 285 285 287 291 293 294 296 297 299 301 302 302 300 297 292 282 272 269 269 266 266 271 274 273 278 280 272 261 256 255 251
306 304 301 298 296 297 299 299 299 299 295 291 287 282 278 277 276 278 281 283 283 282 280 282 287 290 292 293 295 297 299 301 302 303 301 296 290 282 272 266 263 262 268 275 279 283 282 279 276 270 262 256
302 300 297 294 290 290 294 296 295 295 293 289 285 281 277 276 278 280 283 284 283 281 279 279 282 286 289 291 293 294 295 298 300 301 300 296 291 286 281 274 266 257 254 264 276 279 274 277 284 279 273 269
301 302 302 302 301 301 305 306 304 303 300 293 289 285 281 279 280 283 286 287 286 283 281 280 282 284 285 286 287 287 287 291 294 292 289 289 285 280 279 280 278 264 249 253 262 265 266 269 273 270 278 289
302 305 308 311 313 317 323 323 316 311 304 297 294 291 288 287 286 287 288 289 288 285 282 281 281 281 280 280 280 281 283 283 284 283 280 279 279 278 276 277 280 273 259 256 257 253 255 257 261 265 273 288
305 308 310 312 315 320 321 315 308 304 298 294 291 289 288 288 288 288 288 287 286 285 283 281 280 278 277 278 278 278 280 280 280 280 278 275 274 276 277 275 276 276 270 266 259 249 249 252 256 261 265 273